Погода в Тавлах

Россия / Томская область     56°35′27″N   86°55′19″E
темп.,
°C
ветер,
м/с
пор.,
м/с
влажн.,
%
обл.,
%
осадки,
мм/ч
давл.,
гПа
погр.,
м
25 февраля, чт
чт2501:00−16в71395100 0.8 1010513
04:00−15вюв2497100 1.7 1009113
07:00−17юз8157884 1.8 1012515
10:00−18юз713850 0.0 1014878
13:00−17юз7127948 0.0 10161112
16:00−18юз71280100 0.0 10171353
19:00−19юз51289100 0.1 10201364
22:00−21юз41284100 0.0 1020866
26 февраля, пт
пт2601:00−22юз3995100 0.1 1020355
04:00−21юз31097100 0.1 1021485
07:00−22юз51191100 0.1 1022632
10:00−21юз61186100 0.0 10241353
13:00−20юз71182100 0.1 10251422
16:00−21юз71185100 0.1 10261437
19:00−24зюз51088100 0.2 1029756
22:00−27юз5129091 0.0 1032369
27 февраля, сб
сб2701:00−27юз5109195 0.0 1034439
04:00−27юз51095100 0.1 1034584
07:00−26юз41195100 0.3 1034623
10:00−25зюз51092100 0.1 1035695
13:00−23зюз5889100 0.3 1036808
16:00−22зюз5889100 0.1 1036836
19:00−23зюз3894100 0.1 1036509
22:00−25зюз3895100 0.0 1038212
28 февраля, вс
вс2801:00−28зюз349698 0.0 103973
04:00−29юз349691 0.0 103966
07:00−30юз339649 0.0 104032
10:00−27юз36940 0.0 1040212
13:00−21юз24869 0.0 1039429
16:00−17ю248090 0.0 1037658
19:00−20юв239289 0.0 103620
22:00−22юв349762 0.0 103557
1 марта, пн
пн101:00−22вюв469779 0.0 103293
04:00−19вюв4893100 0.0 1029175
07:00−16вюв51096100 0.3 1025272
10:00−13вюв5995100 1.0 1022304
13:00−9вюв5994100 1.7 1018359
16:00−7вюв5995100 0.8 1015448
19:00−5юв4796100 2.1 1013332
22:00−3ю51395100 1.4 1011602